SHENZHOU-11 MODULE (41868 NORAD) Tracking and Keplerian Element Data

This shows tracking and keplerian element data for the satellite.

Feedback or suggestion? Click here.




ElementValue
Catalog41868
NameSHENZHOU-11 MODULE
Epoch Orbit19368
Epoch Day91.89529362
Epoch Year2020
RAAN264.6608
Inclination42.7896
Eccentricity0.0013335
Argument of Perigee303.7139
Mean Anonmoly176.7779
Mean Motion15.91654488
Decay Rate0.0004382
L11 41868U 16061G 20091.89529362 .00043820 89498-5 13593-3 0 9991
L22 41868 42.7896 264.6608 0013335 303.7139 176.7779 15.91654488193680

Live tracking and technical data element details for SHENZHOU-11 MODULE (NORAD 41868). SHENZHOU-11 MODULE can be tracked NOW for your location showing map with azimuth and elevation plus other details from your city location.

Track the satellite on the map from your city or location and see movement details for azimuth, elevation, latitude, longitude, range, height, and movement on the map or in text.







IsCatalogInMostPopularTable: catalog: 41868, numindb: 398
Update: records affected: 1



GetName: 41868 SHENZHOU-11 MODULE

Hit Count: updated at: Thu, 02 Apr 2020 11:32:00 GMT